Location: *
(18.5200°S, 46.4500°E)
Time: 00:12:59
(UTC+00:00)

Cosmos 1953 Rocket - Pass Details

Date: 19 July 2019
Orbit: 604 x 635 km, 82.5° (Epoch: 21 August)

Event Time Altitude Azimuth Distance (km) Brightness Sun altitude
Rises 14:58:29 0° 190° (S) 2,950 6.9 -6.0°
Reaches altitude 10° 15:00:46 10° 194° (SSW) 2,034 6.2 -6.5°
Maximum altitude 15:05:13 60° 273° (W) 726 4.3 -7.5°
Drops below altitude 10° 15:09:35 10° 353° (N) 2,001 6.5 -8.5°
Sets 15:11:49 0° 356° (N) 2,897 7.3 -9.0°
